User: anonymous   Login
Location: Unspecified
(0.0000°N, 0.0000°E)
Time: 19:18:19
(UTC+00:00)
Language:

GOMX 1 - Orbit

View from above orbital plane
View from above orbital plane
View from above satellite
View from above satellite

Ground track
Ground track

The orbit data is extracted from the following two-line orbital elements,

1 39423U 13066H   18351.45758242  .00000047  00000-0  18887-4 0  9999
2 39423  97.7536 301.6344 0175272 164.6869 195.9717 14.53000451268845
Epoch (UTC): 17 December 2018 10:58:55
Eccentricity: 0.0175272
inclination: 97.7536°
perigee height: 591 km
apogee height: 840 km
right ascension of ascending node: 301.6344°
argument of perigee: 164.6869°
revolutions per day: 14.53000451
mean anomaly at epoch: 195.9717°
orbit number at epoch: 26884

The dashed part of the orbit path shows where the satellite is in the earth's shadow,  

DLR